Flag for Brazil Weather past 2 weeks in Florianópolis, Santa Catarina, Brazil

Now
66 °F

Light rain. Overcast.


Feels Like: 66 °F
Forecast: 57 / 69 °F
Wind: 2 mph from Northwest

Location: Florianopolis Aeroporto

Current Time: Jul 24, 2014 at 2:04:20 PM

Latest Report: Jul 24, 2014 at 1:00 PM


Visibility: 3 mi

Pressure: 29.80 "Hg

Humidity: 88%

Dew point: 63 °F

Location of FlorianópolisLocation

Historic Weather in Florianópolis — Graph

°F

Florianópolis temperature yesterday

Maximum temperature yesterday: 73 °F (at 2:00 PM)
Minimum temperature yesterday: 66 °F (at 3:00 AM)
Average temperature yesterday: 69 °F

Past Weeks' High & Low Weather Summary

 TemperatureHumidityPressure
High73 °F (Jul 16, 3:00 PM)94% (Jul 9, 11:00 PM)30.36 "Hg (Jul 9, 11:00 PM)
Low50 °F (Jul 19, 5:00 AM)35% (Jul 19, 2:00 PM)29.77 "Hg (Jul 24, 4:00 AM)
Average64 °F79%30.18 "Hg
* Reported Jul 9 1:00 PM — Jul 24 1:00 PM, Florianópolis, Weather by CustomWeather, © 2014

Note: Actual official high and low records may vary slightly from our data, if they occured in-between our weather recording intervals... More about our weather records

Advertising

Florianópolis weather history for previous 24 hours

 ConditionsComfort  
Time TempWeatherWind HumidityBarometerVisibility
1:00 PM
Jul 24
66 °FLight rain. Overcast.2 mph88%29.80 "Hg3 mi
12:00 PM66 °FPartly sunny.6 mph88%29.83 "HgN/A
11:00 AM66 °FPartly sunny.8 mph88%29.83 "HgN/A
10:00 AM66 °FPartly sunny.No wind88%29.83 "HgN/A
9:00 AM66 °FLight rain. Partly sunny.9 mph88%29.80 "Hg3 mi
8:00 AM66 °FLight rain. Partly sunny.9 mph94%29.83 "Hg3 mi
7:00 AM64 °FLight rain. Broken clouds.6 mph56%29.83 "Hg2 mi
6:00 AM64 °FLight rain. Partly sunny.2 mph94%29.80 "Hg2 mi
5:00 AM64 °FLight rain. Passing clouds.No wind94%29.77 "Hg3 mi
4:00 AM64 °FPassing clouds.No wind94%29.77 "HgN/A
3:00 AM66 °FPassing clouds.No wind88%29.80 "HgN/A
2:00 AM66 °FPassing clouds.3 mph88%29.83 "HgN/A
1:00 AM70 °FPassing clouds.5 mph69%29.86 "HgN/A
12:00 AM70 °FPassing clouds.10 mph73%29.83 "HgN/A
11:00 PM
Jul 23
70 °FClear.9 mph78%29.83 "Hg10 mi
10:00 PM68 °FClear.5 mph83%29.83 "Hg10 mi
9:00 PM68 °FClear.9 mph88%29.83 "Hg10 mi
8:00 PM68 °FClear.8 mph83%29.83 "Hg10 mi
7:00 PM70 °FClear.8 mph78%29.83 "Hg10 mi
6:00 PM68 °FClear.10 mph83%29.86 "Hg10 mi
5:00 PM70 °FClear.8 mph78%29.86 "Hg10 mi
4:00 PM72 °FSunny.8 mph73%29.86 "Hg10 mi
3:00 PM73 °FSunny.13 mph69%29.86 "Hg10 mi
2:00 PM73 °FSunny.10 mph69%29.86 "Hg10 mi
Weather by CustomWeather, © 2014

See weather overviewHow to use our weather pages